Time,TemperatureF,DewpointF,PressureIn,WindDirection,WindDirectionDegrees,WindSpeedMPH,WindSpeedGustMPH,Humidity,HourlyPrecipIn,Conditions,Clouds,dailyrainin,SoftwareType,DateUTC
2013-01-12 00:04:00,35.0,0.0,30.04,NNE,13,10.0,13.0,36,-99.99,,,-99.99,,2013-01-12 08:04:00,
2013-01-12 00:12:00,36.0,0.0,30.04,North,8,8.0,9.0,36,-99.99,,,-99.99,,2013-01-12 08:12:00,
2013-01-12 00:20:00,34.0,0.0,30.04,NNW,343,5.0,7.0,37,-99.99,,,-99.99,,2013-01-12 08:20:00,
2013-01-12 00:28:00,34.0,0.0,30.04,WNW,301,6.0,9.0,39,-99.99,,,-99.99,,2013-01-12 08:28:00,
2013-01-12 00:36:00,33.0,0.0,30.04,NW,324,9.0,10.0,37,-99.99,,,-99.99,,2013-01-12 08:36:00,
2013-01-12 00:44:00,34.0,0.0,30.04,NNW,328,8.0,10.0,37,-99.99,,,-99.99,,2013-01-12 08:44:00,
2013-01-12 00:52:00,33.0,0.0,30.04,NW,321,7.0,10.0,40,-99.99,,,-99.99,,2013-01-12 08:52:00,
2013-01-12 01:00:00,33.0,0.0,30.04,NW,322,10.0,10.0,38,-99.99,,,-99.99,,2013-01-12 09:00:00,
2013-01-12 01:08:00,33.0,0.0,30.04,NW,326,6.0,7.0,39,-99.99,,,-99.99,,2013-01-12 09:08:00,
2013-01-12 01:16:00,31.0,0.0,30.05,NW,323,6.0,6.0,42,-99.99,,,-99.99,,2013-01-12 09:16:00,
2013-01-12 01:24:00,30.0,0.0,30.05,NNW,338,7.0,8.0,41,-99.99,,,-99.99,,2013-01-12 09:24:00,
2013-01-12 01:32:00,30.0,0.0,30.05,NNW,347,8.0,8.0,41,-99.99,,,-99.99,,2013-01-12 09:32:00,
2013-01-12 01:40:00,29.0,0.0,30.05,NNW,341,8.0,8.0,45,-99.99,,,-99.99,,2013-01-12 09:40:00,
2013-01-12 01:48:00,30.0,0.0,30.05,NNW,341,7.0,8.0,41,-99.99,,,-99.99,,2013-01-12 09:48:00,
2013-01-12 01:56:00,30.0,0.0,30.05,NW,305,3.0,5.0,41,-99.99,,,-99.99,,2013-01-12 09:56:00,
2013-01-12 02:04:00,28.0,0.0,30.05,NNW,332,7.0,8.0,44,-99.99,,,-99.99,,2013-01-12 10:04:00,
2013-01-12 02:12:00,28.0,0.0,30.05,NNW,339,8.0,9.0,49,-99.99,,,-99.99,,2013-01-12 10:12:00,
2013-01-12 02:20:00,29.0,0.0,30.05,NNW,344,8.0,8.0,43,-99.99,,,-99.99,,2013-01-12 10:20:00,
2013-01-12 02:28:00,29.0,0.0,30.05,NNW,348,7.0,8.0,44,-99.99,,,-99.99,,2013-01-12 10:28:00,
2013-01-12 02:36:00,28.0,0.0,30.05,NNW,328,7.0,9.0,45,-99.99,,,-99.99,,2013-01-12 10:36:00,
2013-01-12 02:44:00,27.0,0.0,30.05,NNW,339,9.0,10.0,46,-99.99,,,-99.99,,2013-01-12 10:44:00,
2013-01-12 02:52:00,29.0,0.0,30.05,NNW,345,10.0,10.0,43,-99.99,,,-99.99,,2013-01-12 10:52:00,
2013-01-12 03:00:00,29.0,0.0,30.05,NNW,340,9.0,10.0,45,-99.99,,,-99.99,,2013-01-12 11:00:00,
2013-01-12 03:08:00,30.0,0.0,30.05,NNW,339,9.0,10.0,44,-99.99,,,-99.99,,2013-01-12 11:08:00,
2013-01-12 03:16:00,28.0,0.0,30.05,NW,321,8.0,9.0,48,-99.99,,,-99.99,,2013-01-12 11:16:00,
2013-01-12 03:24:00,28.0,0.0,30.05,NW,326,8.0,9.0,44,-99.99,,,-99.99,,2013-01-12 11:24:00,
2013-01-12 03:32:00,27.0,0.0,30.05,NNW,330,8.0,9.0,47,-99.99,,,-99.99,,2013-01-12 11:32:00,
2013-01-12 03:40:00,26.0,0.0,30.05,NW,313,9.0,10.0,47,-99.99,,,-99.99,,2013-01-12 11:40:00,
2013-01-12 03:48:00,27.0,0.0,30.05,NNW,338,9.0,12.0,47,-99.99,,,-99.99,,2013-01-12 11:48:00,
2013-01-12 03:56:00,29.0,0.0,30.05,NW,319,8.0,9.0,42,-99.99,,,-99.99,,2013-01-12 11:56:00,
2013-01-12 04:04:00,27.0,0.0,30.05,NNW,341,6.0,8.0,44,-99.99,,,-99.99,,2013-01-12 12:04:00,
2013-01-12 04:12:00,28.0,0.0,30.05,NNW,336,6.0,6.0,43,-99.99,,,-99.99,,2013-01-12 12:12:00,
2013-01-12 04:20:00,28.0,0.0,30.05,North,350,5.0,5.0,44,-99.99,,,-99.99,,2013-01-12 12:20:00,
2013-01-12 04:28:00,28.0,0.0,30.05,NNW,328,2.0,3.0,41,-99.99,,,-99.99,,2013-01-12 12:28:00,
2013-01-12 04:36:00,29.0,0.0,30.05,NNW,341,2.0,2.0,43,-99.99,,,-99.99,,2013-01-12 12:36:00,
2013-01-12 04:44:00,29.0,0.0,30.05,NW,324,2.0,2.0,42,-99.99,,,-99.99,,2013-01-12 12:44:00,
2013-01-12 04:52:00,29.0,0.0,30.05,North,349,2.0,3.0,40,-99.99,,,-99.99,,2013-01-12 12:52:00,
2013-01-12 05:00:00,30.0,0.0,30.05,NW,315,5.0,5.0,40,-99.99,,,-99.99,,2013-01-12 13:00:00,
2013-01-12 05:08:00,24.0,0.0,30.05,SSE,148,3.0,5.0,47,-99.99,,,-99.99,,2013-01-12 13:08:00,
2013-01-12 05:16:00,23.0,0.0,30.06,ENE,71,3.0,5.0,45,-99.99,,,-99.99,,2013-01-12 13:16:00,
2013-01-12 05:24:00,21.0,0.0,30.06,ESE,107,3.0,6.0,50,-99.99,,,-99.99,,2013-01-12 13:24:00,
2013-01-12 05:36:00,23.0,0.0,30.06,East,98,2.0,2.0,53,-99.99,,,-99.99,,2013-01-12 13:36:00,
2013-01-12 05:44:00,27.0,0.0,30.07,NNE,25,0.0,1.0,40,-99.99,,,-99.99,,2013-01-12 13:44:00,
2013-01-12 05:52:00,28.0,0.0,30.07,NNE,23,2.0,2.0,39,-99.99,,,-99.99,,2013-01-12 13:52:00,
2013-01-12 06:00:00,29.0,0.0,30.07,North,354,1.0,1.0,40,-99.99,,,-99.99,,2013-01-12 14:00:00,
2013-01-12 06:08:00,27.0,0.0,30.08,NNW,340,2.0,3.0,41,-99.99,,,-99.99,,2013-01-12 14:08:00,
2013-01-12 06:16:00,24.0,0.0,30.08,North,0,7.0,7.0,44,-99.99,,,-99.99,,2013-01-12 14:16:00,
2013-01-12 06:24:00,20.0,0.0,30.08,East,100,3.0,6.0,47,-99.99,,,-99.99,,2013-01-12 14:24:00,
2013-01-12 06:32:00,19.0,0.0,30.09,NNW,339,0.0,3.0,52,-99.99,,,-99.99,,2013-01-12 14:32:00,
2013-01-12 06:40:00,25.0,0.0,30.09,NW,306,1.0,2.0,44,-99.99,,,-99.99,,2013-01-12 14:40:00,
2013-01-12 06:48:00,23.0,0.0,30.09,NE,46,0.0,0.0,45,-99.99,,,-99.99,,2013-01-12 14:48:00,
2013-01-12 06:56:00,20.0,0.0,30.10,SW,222,3.0,6.0,50,-99.99,,,-99.99,,2013-01-12 14:56:00,
2013-01-12 07:04:00,20.0,0.0,30.10,NW,306,6.0,7.0,45,-99.99,,,-99.99,,2013-01-12 15:04:00,
2013-01-12 07:12:00,18.0,0.0,30.10,North,349,7.0,8.0,52,-99.99,,,-99.99,,2013-01-12 15:12:00,
2013-01-12 07:20:00,15.0,0.0,30.11,North,4,7.0,8.0,55,-99.99,,,-99.99,,2013-01-12 15:20:00,
2013-01-12 07:28:00,17.0,0.0,30.11,NNE,18,7.0,7.0,56,-99.99,,,-99.99,,2013-01-12 15:28:00,
2013-01-12 07:36:00,17.0,0.0,30.11,NNE,16,2.0,6.0,57,-99.99,,,-99.99,,2013-01-12 15:36:00,
2013-01-12 07:44:00,18.0,0.0,30.12,SSW,213,1.0,6.0,53,-99.99,,,-99.99,,2013-01-12 15:44:00,
2013-01-12 07:52:00,22.0,0.0,30.12,West,273,0.0,0.0,47,-99.99,,,-99.99,,2013-01-12 15:52:00,
2013-01-12 08:00:00,21.0,0.0,30.12,NW,313,3.0,3.0,50,-99.99,,,-99.99,,2013-01-12 16:00:00,
2013-01-12 08:08:00,25.0,0.0,30.12,North,5,3.0,5.0,46,-99.99,,,-99.99,,2013-01-12 16:08:00,
2013-01-12 08:16:00,25.0,0.0,30.13,East,91,1.0,3.0,45,-99.99,,,-99.99,,2013-01-12 16:16:00,
2013-01-12 08:24:00,26.0,0.0,30.13,ESE,116,2.0,3.0,41,-99.99,,,-99.99,,2013-01-12 16:24:00,
2013-01-12 08:32:00,27.0,0.0,30.14,NNW,329,1.0,2.0,40,-99.99,,,-99.99,,2013-01-12 16:32:00,
2013-01-12 08:40:00,30.0,0.0,30.14,West,279,3.0,3.0,38,-99.99,,,-99.99,,2013-01-12 16:40:00,
2013-01-12 08:48:00,31.0,0.0,30.14,NNE,23,0.0,2.0,36,-99.99,,,-99.99,,2013-01-12 16:48:00,
2013-01-12 08:56:00,34.0,0.0,30.14,NNE,26,0.0,2.0,33,-99.99,,,-99.99,,2013-01-12 16:56:00,
2013-01-12 09:04:00,34.0,0.0,30.14,NNE,24,1.0,2.0,36,-99.99,,,-99.99,,2013-01-12 17:04:00,
2013-01-12 09:12:00,35.0,0.0,30.14,NNW,342,1.0,2.0,31,-99.99,,,-99.99,,2013-01-12 17:12:00,
2013-01-12 09:20:00,34.0,0.0,30.14,ENE,73,2.0,3.0,31,-99.99,,,-99.99,,2013-01-12 17:20:00,
2013-01-12 09:28:00,33.0,0.0,30.14,ESE,114,2.0,3.0,33,-99.99,,,-99.99,,2013-01-12 17:28:00,
2013-01-12 09:36:00,33.0,0.0,30.14,ENE,74,2.0,5.0,35,-99.99,,,-99.99,,2013-01-12 17:36:00,
2013-01-12 09:44:00,34.0,0.0,30.14,ESE,113,2.0,5.0,34,-99.99,,,-99.99,,2013-01-12 17:44:00,
2013-01-12 09:52:00,34.0,0.0,30.14,ESE,107,1.0,3.0,32,-99.99,,,-99.99,,2013-01-12 17:52:00,
2013-01-12 10:00:00,36.0,0.0,30.14,ESE,119,3.0,3.0,31,-99.99,,,-99.99,,2013-01-12 18:00:00,
2013-01-12 10:08:00,37.0,0.0,30.14,ESE,107,5.0,6.0,29,-99.99,,,-99.99,,2013-01-12 18:08:00,
2013-01-12 10:16:00,38.0,0.0,30.14,SE,129,3.0,6.0,30,-99.99,,,-99.99,,2013-01-12 18:16:00,
2013-01-12 10:24:00,38.0,0.0,30.14,East,97,2.0,6.0,30,-99.99,,,-99.99,,2013-01-12 18:24:00,
2013-01-12 10:32:00,39.0,0.0,30.14,ESE,121,6.0,7.0,29,-99.99,,,-99.99,,2013-01-12 18:32:00,
2013-01-12 10:40:00,39.0,0.0,30.14,SSE,156,5.0,7.0,29,-99.99,,,-99.99,,2013-01-12 18:40:00,
2013-01-12 10:48:00,40.0,0.0,30.13,SSE,163,7.0,9.0,27,-99.99,,,-99.99,,2013-01-12 18:48:00,
2013-01-12 10:56:00,40.0,0.0,30.13,SE,125,3.0,7.0,29,-99.99,,,-99.99,,2013-01-12 18:56:00,
2013-01-12 11:04:00,40.0,0.0,30.12,SSE,168,7.0,10.0,26,-99.99,,,-99.99,,2013-01-12 19:04:00,
2013-01-12 11:12:00,40.0,0.0,30.12,ESE,113,6.0,8.0,26,-99.99,,,-99.99,,2013-01-12 19:12:00,
2013-01-12 11:20:00,41.0,0.0,30.12,SE,129,7.0,10.0,25,-99.99,,,-99.99,,2013-01-12 19:20:00,
2013-01-12 11:28:00,42.0,0.0,30.11,SSE,168,5.0,13.0,26,-99.99,,,-99.99,,2013-01-12 19:28:00,
2013-01-12 11:36:00,41.0,0.0,30.11,South,187,3.0,12.0,26,-99.99,,,-99.99,,2013-01-12 19:36:00,
2013-01-12 11:44:00,41.0,0.0,30.10,SSE,166,3.0,8.0,25,-99.99,,,-99.99,,2013-01-12 19:44:00,
2013-01-12 11:52:00,42.0,0.0,30.09,ESE,102,5.0,8.0,23,-99.99,,,-99.99,,2013-01-12 19:52:00,
2013-01-12 12:00:00,41.0,0.0,30.09,ESE,122,6.0,9.0,24,-99.99,,,-99.99,,2013-01-12 20:00:00,
2013-01-12 12:08:00,42.0,0.0,30.09,SSW,213,1.0,2.0,23,-99.99,,,-99.99,,2013-01-12 20:08:00,
2013-01-12 12:16:00,42.0,0.0,30.08,ENE,75,7.0,8.0,22,-99.99,,,-99.99,,2013-01-12 20:16:00,
2013-01-12 12:24:00,45.0,0.0,30.08,North,0,2.0,5.0,21,-99.99,,,-99.99,,2013-01-12 20:24:00,
2013-01-12 12:32:00,43.0,0.0,30.08,SSW,213,3.0,10.0,23,-99.99,,,-99.99,,2013-01-12 20:32:00,
2013-01-12 12:40:00,42.0,0.0,30.08,ESE,114,5.0,9.0,24,-99.99,,,-99.99,,2013-01-12 20:40:00,
2013-01-12 12:48:00,43.0,0.0,30.07,SSW,210,3.0,8.0,21,-99.99,,,-99.99,,2013-01-12 20:48:00,
2013-01-12 12:56:00,44.0,0.0,30.07,SSW,203,9.0,10.0,24,-99.99,,,-99.99,,2013-01-12 20:56:00,
2013-01-12 13:04:00,42.0,0.0,30.06,ENE,71,2.0,7.0,23,-99.99,,,-99.99,,2013-01-12 21:04:00,
2013-01-12 13:12:00,44.0,0.0,30.06,SSE,154,10.0,12.0,24,-99.99,,,-99.99,,2013-01-12 21:12:00,
2013-01-12 13:20:00,44.0,0.0,30.06,South,183,5.0,9.0,21,-99.99,,,-99.99,,2013-01-12 21:20:00,
2013-01-12 13:28:00,44.0,0.0,30.06,SSE,150,3.0,6.0,23,-99.99,,,-99.99,,2013-01-12 21:28:00,
2013-01-12 13:36:00,43.0,0.0,30.06,SE,141,7.0,9.0,24,-99.99,,,-99.99,,2013-01-12 21:36:00,
2013-01-12 13:44:00,43.0,0.0,30.06,SE,146,7.0,10.0,24,-99.99,,,-99.99,,2013-01-12 21:44:00,
2013-01-12 13:52:00,44.0,0.0,30.06,South,180,7.0,9.0,23,-99.99,,,-99.99,,2013-01-12 21:52:00,
2013-01-12 14:00:00,44.0,0.0,30.06,SSW,192,7.0,8.0,21,-99.99,,,-99.99,,2013-01-12 22:00:00,
2013-01-12 14:08:00,45.0,0.0,30.06,SSE,165,1.0,6.0,21,-99.99,,,-99.99,,2013-01-12 22:08:00,
2013-01-12 14:16:00,44.0,0.0,30.06,SE,131,3.0,5.0,21,-99.99,,,-99.99,,2013-01-12 22:16:00,
2013-01-12 14:24:00,44.0,0.0,30.06,SSE,157,3.0,6.0,21,-99.99,,,-99.99,,2013-01-12 22:24:00,
2013-01-12 14:32:00,44.0,0.0,30.06,ESE,110,5.0,7.0,22,-99.99,,,-99.99,,2013-01-12 22:32:00,
2013-01-12 14:40:00,44.0,0.0,30.06,West,272,0.0,3.0,21,-99.99,,,-99.99,,2013-01-12 22:40:00,
2013-01-12 14:48:00,45.0,0.0,30.05,NNE,16,0.0,2.0,23,-99.99,,,-99.99,,2013-01-12 22:48:00,
2013-01-12 14:56:00,45.0,0.0,30.05,South,169,6.0,6.0,20,-99.99,,,-99.99,,2013-01-12 22:56:00,
2013-01-12 15:04:00,45.0,0.0,30.05,SW,217,1.0,6.0,22,-99.99,,,-99.99,,2013-01-12 23:04:00,
2013-01-12 15:12:00,45.0,0.0,30.05,South,179,5.0,6.0,19,-99.99,,,-99.99,,2013-01-12 23:12:00,
2013-01-12 15:20:00,44.0,0.0,30.05,NE,55,3.0,3.0,20,-99.99,,,-99.99,,2013-01-12 23:20:00,
2013-01-12 15:28:00,44.0,0.0,30.05,SE,124,2.0,3.0,20,-99.99,,,-99.99,,2013-01-12 23:28:00,
2013-01-12 15:36:00,44.0,0.0,30.05,South,191,2.0,5.0,20,-99.99,,,-99.99,,2013-01-12 23:36:00,
2013-01-12 15:44:00,44.0,0.0,30.04,SE,130,2.0,3.0,21,-99.99,,,-99.99,,2013-01-12 23:44:00,
2013-01-12 15:52:00,44.0,0.0,30.04,East,91,2.0,2.0,20,-99.99,,,-99.99,,2013-01-12 23:52:00,
2013-01-12 16:00:00,44.0,0.0,30.04,SSE,149,3.0,6.0,20,-99.99,,,-99.99,,2013-01-13 00:00:00,
2013-01-12 16:08:00,44.0,0.0,30.04,SE,139,5.0,6.0,22,-99.99,,,-99.99,,2013-01-13 00:08:00,
2013-01-12 16:16:00,43.0,0.0,30.04,ESE,120,5.0,5.0,21,-99.99,,,-99.99,,2013-01-13 00:16:00,
2013-01-12 16:24:00,43.0,0.0,30.04,SE,137,5.0,5.0,20,-99.99,,,-99.99,,2013-01-13 00:24:00,
2013-01-12 16:32:00,42.0,0.0,30.04,ESE,106,3.0,5.0,22,-99.99,,,-99.99,,2013-01-13 00:32:00,
2013-01-12 16:40:00,42.0,0.0,30.04,East,94,3.0,3.0,20,-99.99,,,-99.99,,2013-01-13 00:40:00,
2013-01-12 16:48:00,41.0,0.0,30.04,East,89,3.0,3.0,20,-99.99,,,-99.99,,2013-01-13 00:48:00,
2013-01-12 16:56:00,41.0,0.0,30.04,ESE,115,3.0,5.0,23,-99.99,,,-99.99,,2013-01-13 00:56:00,
2013-01-12 17:04:00,40.0,0.0,30.04,East,101,5.0,5.0,21,-99.99,,,-99.99,,2013-01-13 01:04:00,
2013-01-12 17:12:00,39.0,0.0,30.04,ESE,102,5.0,6.0,25,-99.99,,,-99.99,,2013-01-13 01:12:00,
2013-01-12 17:20:00,38.0,0.0,30.04,East,95,5.0,5.0,24,-99.99,,,-99.99,,2013-01-13 01:20:00,
2013-01-12 17:28:00,37.0,0.0,30.04,East,98,7.0,7.0,25,-99.99,,,-99.99,,2013-01-13 01:28:00,
2013-01-12 17:36:00,36.0,0.0,30.04,ESE,105,7.0,7.0,24,-99.99,,,-99.99,,2013-01-13 01:36:00,
2013-01-12 17:44:00,35.0,0.0,30.04,SE,131,8.0,8.0,26,-99.99,,,-99.99,,2013-01-13 01:44:00,
2013-01-12 17:52:00,35.0,0.0,30.04,ESE,123,7.0,7.0,24,-99.99,,,-99.99,,2013-01-13 01:52:00,
2013-01-12 18:00:00,35.0,0.0,30.05,ESE,118,6.0,7.0,24,-99.99,,,-99.99,,2013-01-13 02:00:00,
2013-01-12 18:08:00,32.0,0.0,30.05,ESE,114,9.0,9.0,27,-99.99,,,-99.99,,2013-01-13 02:08:00,
2013-01-12 18:16:00,33.0,0.0,30.05,ESE,109,7.0,8.0,27,-99.99,,,-99.99,,2013-01-13 02:16:00,
2013-01-12 18:24:00,33.0,0.0,30.05,SSE,162,3.0,7.0,27,-99.99,,,-99.99,,2013-01-13 02:24:00,
2013-01-12 18:32:00,34.0,0.0,30.05,SE,140,3.0,5.0,27,-99.99,,,-99.99,,2013-01-13 02:32:00,
2013-01-12 18:40:00,33.0,0.0,30.05,SSE,153,5.0,6.0,30,-99.99,,,-99.99,,2013-01-13 02:40:00,
2013-01-12 18:48:00,32.0,0.0,30.05,SE,130,5.0,5.0,29,-99.99,,,-99.99,,2013-01-13 02:48:00,
2013-01-12 18:56:00,31.0,0.0,30.05,ESE,112,2.0,3.0,29,-99.99,,,-99.99,,2013-01-13 02:56:00,
2013-01-12 19:04:00,28.0,0.0,30.06,West,262,5.0,5.0,30,-99.99,,,-99.99,,2013-01-13 03:04:00,
2013-01-12 19:12:00,29.0,0.0,30.06,WNW,301,1.0,1.0,31,-99.99,,,-99.99,,2013-01-13 03:12:00,
2013-01-12 19:20:00,28.0,0.0,30.06,SW,225,2.0,3.0,32,-99.99,,,-99.99,,2013-01-13 03:20:00,
2013-01-12 19:28:00,27.0,0.0,30.06,NW,314,1.0,1.0,28,-99.99,,,-99.99,,2013-01-13 03:28:00,
2013-01-12 19:36:00,25.0,0.0,30.06,NNW,344,2.0,3.0,32,-99.99,,,-99.99,,2013-01-13 03:36:00,
2013-01-12 19:44:00,28.0,0.0,30.06,NW,304,2.0,2.0,30,-99.99,,,-99.99,,2013-01-13 03:44:00,
2013-01-12 19:52:00,27.0,0.0,30.06,WNW,303,0.0,3.0,30,-99.99,,,-99.99,,2013-01-13 03:52:00,
2013-01-12 20:00:00,26.0,0.0,30.06,WNW,293,2.0,3.0,32,-99.99,,,-99.99,,2013-01-13 04:00:00,
2013-01-12 20:08:00,27.0,0.0,30.06,NNW,347,3.0,3.0,30,-99.99,,,-99.99,,2013-01-13 04:08:00,
2013-01-12 20:16:00,27.0,0.0,30.07,North,349,3.0,5.0,30,-99.99,,,-99.99,,2013-01-13 04:16:00,
2013-01-12 20:24:00,26.0,0.0,30.07,North,349,5.0,5.0,30,-99.99,,,-99.99,,2013-01-13 04:24:00,
2013-01-12 20:32:00,25.0,0.0,30.07,North,357,3.0,3.0,31,-99.99,,,-99.99,,2013-01-13 04:32:00,
2013-01-12 20:40:00,26.0,0.0,30.07,NNE,16,3.0,3.0,32,-99.99,,,-99.99,,2013-01-13 04:40:00,
2013-01-12 20:48:00,24.0,0.0,30.07,NE,54,6.0,6.0,31,-99.99,,,-99.99,,2013-01-13 04:48:00,
2013-01-12 20:56:00,22.0,0.0,30.07,ENE,58,5.0,5.0,34,-99.99,,,-99.99,,2013-01-13 04:56:00,
2013-01-12 21:00:00,22.0,0.0,30.08,East,81,2.0,5.0,32,-99.99,,,-99.99,,2013-01-13 05:00:00,
2013-01-12 21:04:00,22.0,0.0,30.08,SSE,153,2.0,5.0,34,-99.99,,,-99.99,,2013-01-13 05:04:00,
2013-01-12 21:08:00,23.0,0.0,30.08,ENE,73,0.0,1.0,34,-99.99,,,-99.99,,2013-01-13 05:08:00,
2013-01-12 21:16:00,23.0,0.0,30.08,SE,132,0.0,3.0,34,-99.99,,,-99.99,,2013-01-13 05:16:00,
2013-01-12 21:24:00,24.0,0.0,30.08,SSW,197,2.0,2.0,33,-99.99,,,-99.99,,2013-01-13 05:24:00,
2013-01-12 21:32:00,24.0,0.0,30.08,ESE,106,0.0,1.0,30,-99.99,,,-99.99,,2013-01-13 05:32:00,
2013-01-12 21:40:00,25.0,0.0,30.08,SE,125,2.0,2.0,31,-99.99,,,-99.99,,2013-01-13 05:40:00,
2013-01-12 21:48:00,25.0,0.0,30.08,South,172,2.0,2.0,32,-99.99,,,-99.99,,2013-01-13 05:48:00,
2013-01-12 21:56:00,23.0,0.0,30.08,SW,235,2.0,2.0,36,-99.99,,,-99.99,,2013-01-13 05:56:00,
2013-01-12 22:04:00,22.0,0.0,30.08,West,262,3.0,5.0,33,-99.99,,,-99.99,,2013-01-13 06:04:00,
2013-01-12 22:12:00,19.0,0.0,30.09,West,275,3.0,5.0,36,-99.99,,,-99.99,,2013-01-13 06:12:00,
2013-01-12 22:20:00,21.0,0.0,30.09,West,274,0.0,1.0,39,-99.99,,,-99.99,,2013-01-13 06:20:00,
2013-01-12 22:28:00,25.0,0.0,30.09,WSW,242,2.0,2.0,40,-99.99,,,-99.99,,2013-01-13 06:28:00,
2013-01-12 22:36:00,26.0,0.0,30.09,SW,232,2.0,2.0,40,-99.99,,,-99.99,,2013-01-13 06:36:00,
2013-01-12 22:44:00,24.0,0.0,30.09,WSW,238,5.0,5.0,44,-99.99,,,-99.99,,2013-01-13 06:44:00,
2013-01-12 22:52:00,20.0,0.0,30.10,West,267,2.0,3.0,37,-99.99,,,-99.99,,2013-01-13 06:52:00,
2013-01-12 23:00:00,19.0,0.0,30.10,NW,323,1.0,2.0,40,-99.99,,,-99.99,,2013-01-13 07:00:00,
2013-01-12 23:08:00,18.0,0.0,30.10,WNW,287,3.0,5.0,43,-99.99,,,-99.99,,2013-01-13 07:08:00,
2013-01-12 23:16:00,18.0,0.0,30.11,WNW,286,3.0,3.0,42,-99.99,,,-99.99,,2013-01-13 07:16:00,
2013-01-12 23:24:00,18.0,0.0,30.11,WSW,257,3.0,3.0,43,-99.99,,,-99.99,,2013-01-13 07:24:00,
2013-01-12 23:32:00,19.0,0.0,30.11,West,268,3.0,5.0,46,-99.99,,,-99.99,,2013-01-13 07:32:00,
2013-01-12 23:40:00,18.0,0.0,30.11,WSW,257,3.0,3.0,45,-99.99,,,-99.99,,2013-01-13 07:40:00,
2013-01-12 23:48:00,17.0,0.0,30.12,West,264,2.0,2.0,41,-99.99,,,-99.99,,2013-01-13 07:48:00,
2013-01-12 23:56:00,19.0,0.0,30.12,West,260,2.0,2.0,48,-99.99,,,-99.99,,2013-01-13 07:56:00,